Simultaneous Nadir Overpasses (SNOs) Predictions

Prediction of SNOs between FY3D and AQUA Satellite Orbit:

Table of predicted SNOs for the next 14.0 days since TLE Epoch: 11/9/2019
Index Date (FY3D) Time (FY3D) Lat,Lon (FY3D) SZA (FY3D ) Date (AQUA) Time (AQUA) Lat,Lon (AQUA) SZA (AQUA ) Distance(km) Time Diff (sec)
1 11/11/2019 16:04:02 -67.99, -16.58 58.91 11/11/2019 16:04:57 -67.99, -16.61 58.97 1.43 55
2 11/11/2019 16:53:53 70.73, 154.66 118.52 11/11/2019 16:53:32 70.74, 154.70 118.54 1.36 21
3 11/14/2019 08:20:38 -67.44, 98.64 57.70 11/14/2019 08:21:36 -67.44, 98.64 57.77 0.21 58
4 11/14/2019 09:10:11 71.13, -88.77 118.85 11/14/2019 09:09:54 71.13, -88.82 118.88 1.74 17
5 11/17/2019 00:37:13 -66.93,-146.06 56.55 11/17/2019 00:38:14 -66.93,-146.03 56.65 1.61 61
6 11/17/2019 01:26:45 70.69, 26.39 119.95 11/17/2019 01:26:31 70.69, 26.39 119.97 0.09 14
7 11/19/2019 16:53:26 -67.60, -29.37 56.53 11/19/2019 16:54:31 -67.60, -29.42 56.59 1.97 65
8 11/19/2019 17:43:18 70.30, 141.66 120.97 11/19/2019 17:43:07 70.31, 141.70 120.97 1.63 11
9 11/22/2019 09:09:58 -67.20, 86.04 55.54 11/22/2019 09:11:06 -67.19, 86.01 55.62 1.03 68
10 11/22/2019 09:59:32 70.85,-101.56 121.06 11/22/2019 09:59:25 70.85,-101.62 121.09 2.26 7




NCC Satellite Simultaneous Nadir Overpasses (SNOs) Prediction Service
